Showing default

YAM-3, 48915

Orbit data source: Space-Track

YAM-3, 48915 is a payload satellite owned by Loft Orbital (US) in SSO that was launched on Wed, 30 Jun 2021 UTC via an FALCON 9 launch vehicle from the Air Force Eastern Test Range (AFETR). Payloads include a variety of satellites, spacecraft, and rockets equipped with specific instruments for various scientific and technological missions. These include communications satellites like Starlink; space stations such as the ISS; scientific satellites like the Hubble; Earth observation satellites from companies like Planet Labs, Umbra, and HawkEye 360; GPS; miniature CubeSats for education and research; and military/defense satellites.

Loading next visibility...
YAM-3 details
Identifier
48915, 2021-059AN
Orbit
SSO
Last TLE update10 hours ago
Origin
Flag of USLoft Orbital (US)
ManufacturerBlue Canyon
MissionOperational Commercial Technology
Bus & MotorYAM, Unknown motor
Mass~80 kg wet, ~80 kg dry
Launch date (UTC)
2021-06-30 (4 years ago)
Launch vehicle
FALCON 9
Launch site
Air Force Eastern Test Range (AFETR)
Object type
Payload
Rocket body
Debris
Shape & HBRBox + 2 Pan, 1 m
Radar Cross Section0.446 m², Medium (>0.1 m² and < 1m²)

Expand to show TLE details & history

TLE from 10 hours ago
0 YAM-3
1 48915U 21059AN  25014.90652344  .00014401  00000-0  45381-3 0  9993
2 48915  97.6641 169.8440 0008334  57.2646 302.9398 15.32980995197172
Epoch: 2025-01-14T21:45Z
Definitive object data (Epoch: 2025-01-14T21:45:23.625Z)
Latitude0.00003°
Longitude88.88906°
Altitude466.925 km
Speed7.635 km/s
True Right ascension11h 19m 22s
True Declination0° 00' 00"
Sunlit
Object was in full shadow at TLE epoch
Visualization TLE readout
Latitude82.23392°
Longitude10.42336°
Altitude475.612 km
Speed7.638 km/s
Apparent Right ascension20h 39m 00s
Apparent Declination33° 07' 11"
Sunlit
Object is in full shadow
Visualization observer readout
Local Sidereal Time08:11:57
Azimuth354.092° N
Elevation-16.697°
Doppler factor1
Orbital elements
Apogee altitude469.586 km
Perigee altitude458.182 km
Semi-major axis6,842.021 km
Eccentricity0.0008334
Inclination97.6641°
RAAN169.844°
Arg. of periapsis57.2646°
True anomaly302.85961°
Mean anomaly302.9398°
Eccentric anomaly302.89971°
Mean motion3.83501 °/min
BSTAR0.00045381
Orbital period93.87 mins
Loading maneuver chart data...
Loading historical data...
Loading historical data...
Loading historical data...
Loading historical data...
Loading historical data...
Loading historical data...
Loading historical data...

YAM-3 Visibility forecast

Observer location: undefined°, undefined

Span
Click to sort rows by Start time (UTC) header in descending order
Start Az.
Max El. time (UTC)
Max El. Az.
Max El.
End time (UTC)
End Az.
6 mins2025-01-15 10:24:24.121Z178.492° S2025-01-15 10:27:24.121Z230.999° WSW39.666°2025-01-15 10:30:24.121Z337.358° NNW
5 mins2025-01-15 23:23:24.121Z352.462° N2025-01-15 23:25:24.121Z289.481° WNW36.742°2025-01-15 23:28:24.121Z212.47° SW
|